User: anonymous
Location: Mentone
(34.5413°N, 85.5351°W)
Time: 07:21:25
(UTC-05:00)
Language:

Vanguard 2 Rocket - Orbit

View from above orbital plane
View from above orbital plane
View from above satellite
View from above satellite

Ground track
Ground track

The orbit data is extracted from the following two-line orbital elements,

1 00012U 59001B   14264.92348380  .00000375  00000-0  20045-3 0  9193
2 00012 032.9105 119.5771 1671582 223.4379 122.1878 11.43379042282506
Epoch (UTC): 21 September 2014 22:09:49
Eccentricity: 0.1671582
inclination: 32.9105°
perigee height: 553 km
apogee height: 3336 km
right ascension of ascending node: 119.5771°
argument of perigee: 223.4379°
revolutions per day: 11.43379042
mean anomaly at epoch: 122.1878°
orbit number at epoch: 28250

The dashed part of the orbit path shows where the satellite is in the earth's shadow,  

DLR